Погода в Йоа-Хейвен

Канада     68°37′22″N   95°52′15″W
темп.,
°C
ветер,
м/с
пор.,
м/с
влажн.,
%
обл.,
%
осадки,
мм/ч
давл.,
гПа
погр.,
м
15 мая, сб
сб1500:00−9сз81488100 0.0 1019414
03:00−10сз81390100 0.0 1018337
06:00−10сз71288100 0.0 1018382
09:00−9сз81084100 0.0 1017438
12:00−7с6686100 0.1 1017472
15:00−6ссз4483100 0.0 1018648
18:00−6сз469099 0.1 1018301
21:00−7ссв3494100 0.2 101887
16 мая, вс
вс1600:00−12св3393100 0.2 101916
03:00−18св3310098 0.0 102016
06:00−18всв239965 0.0 102043
09:00−13вюв228882 0.0 1021121
12:00−10юв2280100 0.0 1021233
15:00−8ююв337299 0.0 1021428
18:00−8ююв4475100 0.0 1020369
21:00−9юв5794100 0.1 1019198
17 мая, пн
пн1700:00−8юв5796100 0.7 1017165
03:00−8вюв4596100 0.6 1017157
06:00−7в5694100 1.1 1016231
09:00−7всв8993100 0.6 1016399
12:00−7св101190100 1.2 1017541
15:00−7св10118698 0.2 1019720
18:00−9ссв912865 0.3 1021421
21:00−12ссв610925 0.0 1023125
18 мая, вт
вт1800:00−16с579743 0.0 102459
03:00−17ссз469724 0.0 102544
06:00−14сз37916 0.0 1026102
09:00−11сз58835 0.0 1027270
12:00−9зсз79805 0.0 1027440
15:00−8з8127932 0.0 1027624
18:00−8з8138295 0.0 1026490
21:00−8з8148698 0.0 1026383
19 мая, ср
ср1900:00−11зюз8149294 0.0 1025229
03:00−12зюз71491100 0.0 1025221
06:00−12зюз71389100 0.0 1025235
09:00−10юз8137987 0.0 1025365
12:00−8юз912736 0.0 1025440
15:00−7юз812796 0.0 1025516
18:00−7юз712855 0.0 1024376
21:00−9юз610935 0.0 1025133